User: anonymous   Login
Location: Onan Observatory
(44.8103°N, 93.9397°W)
Time: 00:58:26
(UTC-05:00)
Language:

Iridium 90 - Orbit

View from above orbital plane
View from above orbital plane
View from above satellite
View from above satellite

Ground track
Ground track

The orbit data is extracted from the following two-line orbital elements,

1 27373U 02005B   16210.34238437  .00000184  00000-0  49026-4 0  9991
2 27373  86.4499 125.4709 0002400  80.5369 279.6103 14.42944656764650
Epoch (UTC): 28 July 2016 08:13:02
Eccentricity: 0.0002400
inclination: 86.4499°
perigee height: 747 km
apogee height: 750 km
right ascension of ascending node: 125.4709°
argument of perigee: 80.5369°
revolutions per day: 14.42944656
mean anomaly at epoch: 279.6103°
orbit number at epoch: 76465

The dashed part of the orbit path shows where the satellite is in the earth's shadow,  

DLR